SL-3 R/B

Last updated on Tue Sep 16 2025 00:02:14 GMT+0000 (Coordinated Universal Time)

1 19046U 88032B 25258.53380919 .00004456 00000+0 22447-3 0 9991 2 19046 97.4977 238.0015 0029297 121.5757 238.8342 15.17321301 25529
UTC large
Height (km)
Speed (km/s)
/
Latitude / Longitude
Inclination (degrees)
Orbital Period (minutes)
Azimuth
Elevation
Range (km)
Doppler Factor

Next 0 passes for location: London (51.5072 / 0.1276)

Sorry there are no passes over London.